Date String (YYYY-MM-DD hh:mm:ss) UTC,Instrument flags,absolute air pressure of the measurement (hPa),sample flow rate (lpm),inlet stack bypass flow (lpm),air temperature of the measurement (°C),ambient temperature measured by the external sensor (°C),aerosol sample conditioner tube jacket temperature (°C),OPC LED temperature (°C),internal box temperature (°C),relative humidity of the measurement (%),span deviation,mass concentration of particles derived from Lorenz-Mie calculation of OPC scattering (μg/m³),mass concentration of particles derived from Lorenz-Mie calculation of OPC scattering (μg/m³),mass concentration of particles derived from Lorenz-Mie calculation of OPC scattering (μg/m³)
DateTimeUTC,F1_M11,P_M11,Q1_M11,Q2_M11,T1_M11,T2_M11,T3_M11,T4_M11,T5_M11,U1_M11,ZSPAN_M11,X2_M11,X0_M11,X1_M11
2024-03-03 19:00:00,SystemResetWarning,0816.2,5.00,000.00,018.4,017.6,000.0,027.0,020.0,12.6,0000.0,0000.73,0004.57,0000.26
2024-03-03 19:01:00,SystemResetWarning,0816.1,4.99,000.00,018.4,017.6,000.0,027.0,020.0,12.9,0000.0,0000.73,0003.90,0000.26
2024-03-03 19:02:00,SystemResetWarning,0816.2,4.99,000.00,018.4,017.6,000.0,027.0,020.0,13.2,0000.0,0000.72,0003.94,0000.26
2024-03-03 19:03:00,SystemResetWarning,0816.1,5.00,000.00,018.4,017.6,000.0,027.0,020.0,12.8,0000.0,0000.70,0005.72,0000.27
2024-03-03 19:04:00,SystemResetWarning,0816.1,5.00,000.00,018.4,017.6,000.0,027.0,020.0,13.1,0000.0,0000.69,0006.67,0000.28
2024-03-03 19:05:00,SystemResetWarning,0816.2,5.00,000.00,018.4,017.6,000.0,027.0,020.0,13.3,0000.0,0000.72,0007.41,0000.29
2024-03-03 19:06:00,SystemResetWarning,0816.2,5.01,000.00,018.4,017.6,000.0,027.0,020.0,12.9,0000.0,0000.71,0007.56,0000.29
2024-03-03 19:07:00,SystemResetWarning,0816.2,5.00,000.00,018.4,017.7,000.0,027.0,020.0,12.8,0000.0,0000.72,0007.40,0000.29
2024-03-03 19:08:00,SystemResetWarning,0816.1,4.99,000.00,018.4,017.7,000.0,027.0,020.0,12.2,0000.0,0000.75,0006.30,0000.29
2024-03-03 19:09:00,SystemResetWarning,0816.1,4.99,000.00,018.4,017.7,000.0,027.0,020.0,11.8,0000.0,0000.76,0006.27,0000.30
2024-03-03 19:10:00,SystemResetWarning,0816.1,5.00,000.00,018.4,017.7,000.0,026.9,020.0,12.2,0000.0,0000.76,0006.22,0000.29
2024-03-03 19:11:00,SystemResetWarning,0816.1,5.01,000.00,018.4,017.7,000.0,027.0,020.0,12.7,0000.0,0000.84,0006.60,0000.29
2024-03-03 19:12:00,SystemResetWarning,0816.1,5.01,000.00,018.4,017.7,000.0,027.0,020.0,12.6,0000.0,0000.92,0007.34,0000.30
2024-03-03 19:13:00,SystemResetWarning,0816.1,5.00,000.00,018.4,017.7,000.0,027.0,020.0,12.4,0000.0,0000.91,0007.39,0000.30
2024-03-03 19:14:00,SystemResetWarning,0816.1,4.99,000.00,018.4,017.7,000.0,027.0,020.0,11.8,0000.0,0000.88,0005.85,0000.29
2024-03-03 19:15:00,SystemResetWarning,0816.1,4.99,000.00,018.4,017.7,000.0,027.0,020.0,11.5,0000.0,0000.87,0004.93,0000.29
2024-03-03 19:16:00,SystemResetWarning,0816.1,5.00,000.00,018.4,017.7,000.0,026.9,020.0,11.8,0000.0,0000.84,0004.88,0000.28
2024-03-03 19:17:00,SystemResetWarning,0816.1,5.00,000.00,018.4,017.7,000.0,026.9,020.0,11.6,0000.0,0000.82,0004.25,0000.27
2024-03-03 19:18:00,SystemResetWarning,0816.2,5.01,000.00,018.4,017.8,000.0,026.9,020.0,12.0,0000.0,0000.82,0005.40,0000.26
2024-03-03 19:19:00,SystemResetWarning,0816.2,5.00,000.00,018.4,017.8,000.0,026.9,020.0,12.0,0000.0,0000.79,0005.48,0000.25
2024-03-03 19:20:00,SystemResetWarning,0816.2,5.00,000.00,018.4,017.8,000.0,026.8,020.0,11.6,0000.0,0000.76,0005.36,0000.25
2024-03-03 19:21:00,SystemResetWarning,0816.2,5.00,000.00,018.4,017.7,000.0,026.8,020.0,11.8,0000.0,0000.77,0005.34,0000.25
2024-03-03 19:22:00,SystemResetWarning,0816.2,4.99,000.00,018.4,017.7,000.0,026.9,020.0,12.0,0000.0,0000.77,0005.16,0000.24
2024-03-03 19:23:00,SystemResetWarning,0816.2,4.99,000.00,018.4,017.7,000.0,026.8,020.0,11.8,0000.0,0000.68,0004.41,0000.24
2024-03-03 19:24:00,SystemResetWarning,0816.3,5.01,000.00,018.4,017.7,000.0,026.8,020.0,11.7,0000.0,0000.63,0004.01,0000.24
2024-03-03 19:25:00,SystemResetWarning,0816.3,5.01,000.00,018.4,017.7,000.0,026.8,020.0,11.8,0000.0,0000.64,0004.07,0000.24
2024-03-03 19:26:00,SystemResetWarning,0816.3,5.00,000.00,018.4,017.7,000.0,026.8,020.0,11.8,0000.0,0000.64,0005.20,0000.24
2024-03-03 19:27:00,SystemResetWarning,0816.3,4.99,000.00,018.4,017.7,000.0,026.8,020.0,12.1,0000.0,0000.64,0005.03,0000.25
2024-03-03 19:28:00,SystemResetWarning,0816.3,4.99,000.00,018.4,017.7,000.0,026.8,020.0,12.2,0000.0,0000.63,0004.89,0000.24
2024-03-03 19:29:00,SystemResetWarning,0816.3,4.99,000.00,018.4,017.6,000.0,026.8,020.0,12.4,0000.0,0000.63,0003.75,0000.25
2024-03-03 19:30:00,SystemResetWarning,0816.2,5.01,000.00,018.4,017.6,000.0,026.8,020.0,12.3,0000.0,0000.64,0003.48,0000.25
2024-03-03 19:31:00,SystemResetWarning,0816.3,5.00,000.00,018.4,017.6,000.0,026.9,020.0,12.0,0000.0,0000.66,0003.55,0000.26
2024-03-03 19:32:00,SystemResetWarning,0816.3,5.00,000.00,018.4,017.6,000.0,026.9,020.0,12.2,0000.0,0000.63,0003.49,0000.26
2024-03-03 19:33:00,SystemResetWarning,0816.3,5.00,000.00,018.4,017.6,000.0,026.8,020.0,11.7,0000.0,0000.59,0003.39,0000.26
2024-03-03 19:34:00,SystemResetWarning,0816.2,4.99,000.00,018.4,017.6,000.0,026.9,020.0,12.1,0000.0,0000.59,0003.36,0000.27
2024-03-03 19:35:00,SystemResetWarning,0816.2,4.99,000.00,018.4,017.6,000.0,026.9,020.0,12.3,0000.0,0000.61,0003.43,0000.27
2024-03-03 19:36:00,SystemResetWarning,0816.1,5.00,000.00,018.4,017.6,000.0,026.9,020.0,12.0,0000.0,0000.63,0003.53,0000.27
2024-03-03 19:37:00,SystemResetWarning,0816.1,5.00,000.00,018.4,017.6,000.0,026.9,020.0,11.8,0000.0,0000.65,0003.60,0000.27
2024-03-03 19:38:00,SystemResetWarning,0816.1,5.00,000.00,018.4,017.6,000.0,026.9,020.0,12.0,0000.0,0000.69,0002.52,0000.27
2024-03-03 19:39:00,SystemResetWarning,0816.1,5.00,000.00,018.4,017.6,000.0,026.9,020.0,12.0,0000.0,0000.69,0002.58,0000.26
2024-03-03 19:40:00,SystemResetWarning,0816.1,5.00,000.00,018.4,017.6,000.0,026.9,020.0,12.2,0000.0,0000.71,0002.71,0000.26
2024-03-03 19:41:00,SystemResetWarning,0816.1,5.00,000.00,018.4,017.6,000.0,026.9,020.0,12.5,0000.0,0000.69,0003.23,0000.26
2024-03-03 19:42:00,SystemResetWarning,0816.0,5.00,000.00,018.4,017.6,000.0,026.9,020.0,12.0,0000.0,0000.69,0003.84,0000.26
2024-03-03 19:43:00,SystemResetWarning,0816.0,5.00,000.00,018.4,017.6,000.0,026.9,020.0,11.8,0000.0,0000.67,0003.75,0000.26
2024-03-03 19:44:00,SystemResetWarning,0816.0,5.00,000.00,018.4,017.6,000.0,026.9,020.0,12.1,0000.0,0000.70,0004.39,0000.26
2024-03-03 19:45:00,SystemResetWarning,0815.9,5.00,000.00,018.4,017.6,000.0,026.9,020.0,11.8,0000.0,0000.70,0004.99,0000.26
2024-03-03 19:46:00,SystemResetWarning,0815.9,5.01,000.00,018.4,017.6,000.0,026.9,020.0,11.7,0000.0,0000.69,0006.15,0000.25
2024-03-03 19:47:00,SystemResetWarning,0815.8,5.01,000.00,018.4,017.6,000.0,026.9,020.0,11.7,0000.0,0000.69,0006.18,0000.25
2024-03-03 19:48:00,SystemResetWarning,0815.8,4.99,000.00,018.4,017.6,000.0,026.9,020.0,12.2,0000.0,0000.66,0006.13,0000.24
2024-03-03 19:49:00,SystemResetWarning,0815.7,5.00,000.00,018.4,017.6,000.0,026.9,020.0,11.8,0000.0,0000.64,0005.71,0000.24
2024-03-03 19:50:00,SystemResetWarning,0815.7,5.00,000.00,018.4,017.6,000.0,026.9,020.0,12.2,0000.0,0000.63,0005.33,0000.24
2024-03-03 19:51:00,SystemResetWarning,0815.7,5.00,000.00,018.4,017.6,000.0,026.9,020.0,12.2,0000.0,0000.60,0005.19,0000.24
2024-03-03 19:52:00,SystemResetWarning,0815.7,4.99,000.00,018.4,017.6,000.0,026.9,020.0,12.4,0000.0,0000.60,0004.61,0000.23
2024-03-03 19:53:00,SystemResetWarning,0815.6,5.00,000.00,018.4,017.6,000.0,026.9,020.0,12.2,0000.0,0000.58,0004.10,0000.24
2024-03-03 19:54:00,SystemResetWarning,0815.6,5.00,000.00,018.4,017.7,000.0,026.9,020.0,11.9,0000.0,0000.58,0004.15,0000.23
2024-03-03 19:55:00,SystemResetWarning,0815.6,5.00,000.00,018.4,017.7,000.0,026.9,020.0,12.5,0000.0,0000.57,0003.48,0000.23
2024-03-03 19:56:00,SystemResetWarning,0815.5,5.00,000.00,018.4,017.7,000.0,026.9,020.0,11.9,0000.0,0000.58,0002.93,0000.23
2024-03-03 19:57:00,SystemResetWarning,0815.4,5.00,000.00,018.4,017.7,000.0,026.9,020.0,11.7,0000.0,0000.53,0001.63,0000.22
2024-03-03 19:58:00,SystemResetWarning,0815.4,5.00,000.00,018.4,017.7,000.0,026.9,020.0,12.1,0000.0,0000.49,0001.43,0000.22
2024-03-03 19:59:00,SystemResetWarning,0815.4,5.00,000.00,018.4,017.7,000.0,026.8,020.0,11.4,0000.0,0000.48,0001.31,0000.22
